Regional Weather Roundup
Issued by NWS

Home | Current Version | Previous Version | Text Only | Print | Product List | Glossary Off
Versions: 1 2 3 4 5 6 7 8 9 10 11 12 13 14 15 16 17 18 19 20 21 22 23 24 25 26 27 28 29 30 31 32 33 34 35 36 37 38 39 40 41 42 43 44 45 46 47 48 49 50

000
ASUS45 KSLC 102310
RWRUT

UTAH REGIONAL WEATHER ROUNDUP
NATIONAL WEATHER SERVICE SALT LAKE CITY UT
500 PM MDT THU JUL 10 2014

UTZ001>011-023>025-110000-

NORTHERN UTAH

CITY           SKY/WX    TMP DP  RH WIND       PRES   REMARKS
HILL AFB       SUNNY     88  53  29 SE7       29.96F
LOGAN          SUNNY     88  51  28 CALM      29.93F
OGDEN          SUNNY     90  49  24 MISG      29.92F
PROVO AIRPORT  PTSUNNY   86  55  35 NW7       29.96R
SALT LAKE CITY PTSUNNY   92  50  23 N7        29.90F
VERNAL         LGT RAIN  73  57  57 N10       30.02R
WENDOVER       PTSUNNY   93  46  20 SE7       29.90S
HEBER CITY     PTSUNNY   86  50  28 NW5       30.00F
WEST JORDAN    SUNNY     88  57  35 N5        29.95

$$

UTZ012>022-026-027-110000-

SOUTHERN UTAH

CITY           SKY/WX    TMP DP  RH WIND       PRES   REMARKS
BRYCE CANYON   CLOUDY    69  52  54 SW10      30.25R
CEDAR CITY     LGT RAIN  64  57  78 W14       30.14R
MILFORD        LGT RAIN  66  58  75 SW22      30.08R
MOAB/CYNLANDS  PTSUNNY   92  49  22 SE10      29.90F
PRICE          CLOUDY    72  54  53 NW12G21   30.11R
ST GEORGE      NOT AVBL

$$

REGIONAL REPORTS     COLORADO/ARIZONA

CITY           SKY/WX    TMP DP  RH WIND       PRES   REMARKS
CRAIG, CO      PTSUNNY   81  46  29 SW15      30.06F
GRAND JUNCTION MOSUNNY   91  49  23 CALM      29.94F
RIFLE          MOSUNNY   88  46  23 CALM      29.99F
MONTROSE       MOSUNNY   87  49  26 N7        30.04F
CORTEZ         SUNNY     89  47  23 NW8       30.06F THUNDER
PAGE, AZ       PTSUNNY   89  51  27 W12G18    29.97R
GRAND CANYON   CLOUDY    68  59  73 SW12G18   30.21S
KINGMAN        LGT RAIN  67  64  90 N20       30.07R
FLAGSTAFF      PTSUNNY   74  51  44 SW12G25   30.22F

$$

REGIONAL REPORTS    NEVADA/IDAHO/WYOMING

CITY           SKY/WX    TMP DP  RH WIND       PRES   REMARKS
LAS VEGAS, NV  CLOUDY    89  62  40 E22       29.85S
ELY            CLOUDY    73  47  39 NW24G33   30.16R
ELKO           PTSUNNY   88  42  20 N10       29.98F
POCATELLO, ID  SUNNY     91  36  14 SW15      29.93F
BURLEY         SUNNY     87  46  24 W10       29.91F
EVANSTON, WY   CLOUDY    76  50  40 NE10      30.14F
ROCK SPRINGS   LGT RAIN  67  55  65 S10       30.13R

$$


USA.gov is the U.S. government's official web portal to all federal, state and local government web resources and services.